owner,sensor,date,latitude,longitude,vertical_datum,sea_water_temperature,qcFlag 
ENP,ioos.station.NOAA.NDBC:DKKF1:1,2017-02-01T00:00:00Z,25.1800,-80.4900,1.0,19.03,2 
ENP,ioos.station.NOAA.NDBC:DKKF1:1,2017-02-01T01:00:00Z,25.1800,-80.4900,1.0,18.99,2 
ENP,ioos.station.NOAA.NDBC:DKKF1:1,2017-02-01T03:00:00Z,25.1800,-80.4900,1.0,18.9,11111222 
ENP,ioos.station.NOAA.NDBC:DKKF1:1,2017-02-01T04:00:00Z,25.1800,-80.4900,1.0,18.84,2 
ENP,ioos.station.NOAA.NDBC:DKKF1:1,2017-02-01T06:00:00Z,25.1800,-80.4900,1.0,18.7,11111222 
ENP,ioos.station.NOAA.NDBC:DKKF1:1,2017-02-01T07:00:00Z,25.1800,-80.4900,1.0,18.58,2 
ENP,ioos.station.NOAA.NDBC:DKKF1:1,2017-02-01T08:00:00Z,25.1800,-80.4900,1.0,18.5,11111222 
ENP,ioos.station.NOAA.NDBC:DKKF1:1,2017-02-01T09:00:00Z,25.1800,-80.4900,1.0,18.4,2 
ENP,ioos.station.NOAA.NDBC:DKKF1:1,2017-02-01T10:00:00Z,25.1800,-80.4900,1.0,18.39,2 
ENP,ioos.station.NOAA.NDBC:DKKF1:1,2017-02-01T11:00:00Z,25.1800,-80.4900,1.0,18.4,11111222 
ENP,ioos.station.NOAA.NDBC:DKKF1:1,2017-02-01T12:00:00Z,25.1800,-80.4900,1.0,18.3,11111222 
ENP,ioos.station.NOAA.NDBC:DKKF1:1,2017-02-01T13:00:00Z,25.1800,-80.4900,1.0,18.2,11111222 
ENP,ioos.station.NOAA.NDBC:DKKF1:1,2017-02-01T14:00:00Z,25.1800,-80.4900,1.0,18.2,11111222 
ENP,ioos.station.NOAA.NDBC:DKKF1:1,2017-02-01T15:00:00Z,25.1800,-80.4900,1.0,18.3,2 
ENP,ioos.station.NOAA.NDBC:DKKF1:1,2017-02-01T16:00:00Z,25.1800,-80.4900,1.0,18.5,11111222 
ENP,ioos.station.NOAA.NDBC:DKKF1:1,2017-02-01T17:00:00Z,25.1800,-80.4900,1.0,18.68,2 
ENP,ioos.station.NOAA.NDBC:DKKF1:1,2017-02-01T18:00:00Z,25.1800,-80.4900,1.0,19.0,11111222 
ENP,ioos.station.NOAA.NDBC:DKKF1:1,2017-02-01T19:00:00Z,25.1800,-80.4900,1.0,19.3,11111222 
ENP,ioos.station.NOAA.NDBC:DKKF1:1,2017-02-01T20:00:00Z,25.1800,-80.4900,1.0,19.7,11111222 
ENP,ioos.station.NOAA.NDBC:DKKF1:1,2017-02-01T21:00:00Z,25.1800,-80.4900,1.0,19.9,2 
ENP,ioos.station.NOAA.NDBC:DKKF1:1,2017-02-01T22:00:00Z,25.1800,-80.4900,1.0,20.05,2 
ENP,ioos.station.NOAA.NDBC:DKKF1:1,2017-02-01T23:00:00Z,25.1800,-80.4900,1.0,20.13,2 
ENP,ioos.station.NOAA.NDBC:DKKF1:1,2017-02-02T00:00:00Z,25.1800,-80.4900,1.0,20.11,2 
ENP,ioos.station.NOAA.NDBC:DKKF1:1,2017-02-02T01:00:00Z,25.1800,-80.4900,1.0,20.1,11111222 
ENP,ioos.station.NOAA.NDBC:DKKF1:1,2017-02-02T03:00:00Z,25.1800,-80.4900,1.0,20.0,11111222 
ENP,ioos.station.NOAA.NDBC:DKKF1:1,2017-02-02T04:00:00Z,25.1800,-80.4900,1.0,19.96,2 
ENP,ioos.station.NOAA.NDBC:DKKF1:1,2017-02-02T05:00:00Z,25.1800,-80.4900,1.0,19.9,11111222 
ENP,ioos.station.NOAA.NDBC:DKKF1:1,2017-02-02T06:00:00Z,25.1800,-80.4900,1.0,19.9,2 
ENP,ioos.station.NOAA.NDBC:DKKF1:1,2017-02-02T07:00:00Z,25.1800,-80.4900,1.0,19.9,2 
ENP,ioos.station.NOAA.NDBC:DKKF1:1,2017-02-02T08:00:00Z,25.1800,-80.4900,1.0,19.86,2 
ENP,ioos.station.NOAA.NDBC:DKKF1:1,2017-02-02T09:00:00Z,25.1800,-80.4900,1.0,19.8,2 
ENP,ioos.station.NOAA.NDBC:DKKF1:1,2017-02-02T10:00:00Z,25.1800,-80.4900,1.0,19.7,11111222 
ENP,ioos.station.NOAA.NDBC:DKKF1:1,2017-02-02T11:00:00Z,25.1800,-80.4900,1.0,19.75,2 
ENP,ioos.station.NOAA.NDBC:DKKF1:1,2017-02-02T12:00:00Z,25.1800,-80.4900,1.0,19.71,2 
ENP,ioos.station.NOAA.NDBC:DKKF1:1,2017-02-02T13:00:00Z,25.1800,-80.4900,1.0,19.67,2 
ENP,ioos.station.NOAA.NDBC:DKKF1:1,2017-02-02T14:00:00Z,25.1800,-80.4900,1.0,19.69,2 
ENP,ioos.station.NOAA.NDBC:DKKF1:1,2017-02-02T15:00:00Z,25.1800,-80.4900,1.0,19.72,2 
ENP,ioos.station.NOAA.NDBC:DKKF1:1,2017-02-02T16:00:00Z,25.1800,-80.4900,1.0,19.84,2 
ENP,ioos.station.NOAA.NDBC:DKKF1:1,2017-02-02T17:00:00Z,25.1800,-80.4900,1.0,20.03,2 
ENP,ioos.station.NOAA.NDBC:DKKF1:1,2017-02-02T18:00:00Z,25.1800,-80.4900,1.0,20.3,11111222 
ENP,ioos.station.NOAA.NDBC:DKKF1:1,2017-02-02T19:00:00Z,25.1800,-80.4900,1.0,20.59,2 
ENP,ioos.station.NOAA.NDBC:DKKF1:1,2017-02-02T20:00:00Z,25.1800,-80.4900,1.0,20.9,11111222 
ENP,ioos.station.NOAA.NDBC:DKKF1:1,2017-02-02T21:00:00Z,25.1800,-80.4900,1.0,21.14,2 
ENP,ioos.station.NOAA.NDBC:DKKF1:1,2017-02-02T22:00:00Z,25.1800,-80.4900,1.0,21.24,2 
ENP,ioos.station.NOAA.NDBC:DKKF1:1,2017-02-02T23:00:00Z,25.1800,-80.4900,1.0,21.21,2 
ENP,ioos.station.NOAA.NDBC:DKKF1:1,2017-02-03T00:00:00Z,25.1800,-80.4900,1.0,21.2,11111222 
ENP,ioos.station.NOAA.NDBC:DKKF1:1,2017-02-03T01:00:00Z,25.1800,-80.4900,1.0,21.22,2 
ENP,ioos.station.NOAA.NDBC:DKKF1:1,2017-02-03T02:00:00Z,25.1800,-80.4900,1.0,21.2,11111222 
ENP,ioos.station.NOAA.NDBC:DKKF1:1,2017-02-03T03:00:00Z,25.1800,-80.4900,1.0,21.14,2 
ENP,ioos.station.NOAA.NDBC:DKKF1:1,2017-02-03T04:00:00Z,25.1800,-80.4900,1.0,21.1,11111222 
ENP,ioos.station.NOAA.NDBC:DKKF1:1,2017-02-03T05:00:00Z,25.1800,-80.4900,1.0,21.1,11111222 
ENP,ioos.station.NOAA.NDBC:DKKF1:1,2017-02-03T06:00:00Z,25.1800,-80.4900,1.0,21.04,2 
ENP,ioos.station.NOAA.NDBC:DKKF1:1,2017-02-03T07:00:00Z,25.1800,-80.4900,1.0,21.0,11111222 
ENP,ioos.station.NOAA.NDBC:DKKF1:1,2017-02-03T08:00:00Z,25.1800,-80.4900,1.0,21.0,11111222 
ENP,ioos.station.NOAA.NDBC:DKKF1:1,2017-02-03T09:00:00Z,25.1800,-80.4900,1.0,20.9,2 
ENP,ioos.station.NOAA.NDBC:DKKF1:1,2017-02-03T10:00:00Z,25.1800,-80.4900,1.0,20.85,2 
ENP,ioos.station.NOAA.NDBC:DKKF1:1,2017-02-03T11:00:00Z,25.1800,-80.4900,1.0,20.8,11111222 
ENP,ioos.station.NOAA.NDBC:DKKF1:1,2017-02-03T12:00:00Z,25.1800,-80.4900,1.0,20.8,11111222 
ENP,ioos.station.NOAA.NDBC:DKKF1:1,2017-02-03T13:00:00Z,25.1800,-80.4900,1.0,20.7,11111222 
ENP,ioos.station.NOAA.NDBC:DKKF1:1,2017-02-03T14:00:00Z,25.1800,-80.4900,1.0,20.8,11111222 
ENP,ioos.station.NOAA.NDBC:DKKF1:1,2017-02-03T15:00:00Z,25.1800,-80.4900,1.0,20.9,11111222 
ENP,ioos.station.NOAA.NDBC:DKKF1:1,2017-02-03T16:00:00Z,25.1800,-80.4900,1.0,21.1,11111222 
ENP,ioos.station.NOAA.NDBC:DKKF1:1,2017-02-03T17:00:00Z,25.1800,-80.4900,1.0,21.3,11111222 
ENP,ioos.station.NOAA.NDBC:DKKF1:1,2017-02-03T18:00:00Z,25.1800,-80.4900,1.0,21.5,11111222 
ENP,ioos.station.NOAA.NDBC:DKKF1:1,2017-02-03T19:00:00Z,25.1800,-80.4900,1.0,21.8,11111222 
ENP,ioos.station.NOAA.NDBC:DKKF1:1,2017-02-03T20:00:00Z,25.1800,-80.4900,1.0,22.0,11111222 
ENP,ioos.station.NOAA.NDBC:DKKF1:1,2017-02-03T21:00:00Z,25.1800,-80.4900,1.0,22.35,2 
ENP,ioos.station.NOAA.NDBC:DKKF1:1,2017-02-03T22:00:00Z,25.1800,-80.4900,1.0,22.58,2 
ENP,ioos.station.NOAA.NDBC:DKKF1:1,2017-02-03T23:00:00Z,25.1800,-80.4900,1.0,22.56,2 
ENP,ioos.station.NOAA.NDBC:DKKF1:1,2017-02-04T00:00:00Z,25.1800,-80.4900,1.0,22.53,2 
ENP,ioos.station.NOAA.NDBC:DKKF1:1,2017-02-04T01:00:00Z,25.1800,-80.4900,1.0,22.51,2 
ENP,ioos.station.NOAA.NDBC:DKKF1:1,2017-02-04T02:00:00Z,25.1800,-80.4900,1.0,22.49,2 
ENP,ioos.station.NOAA.NDBC:DKKF1:1,2017-02-04T03:00:00Z,25.1800,-80.4900,1.0,22.4,11111222 
ENP,ioos.station.NOAA.NDBC:DKKF1:1,2017-02-04T04:00:00Z,25.1800,-80.4900,1.0,22.4,11111222 
ENP,ioos.station.NOAA.NDBC:DKKF1:1,2017-02-04T05:00:00Z,25.1800,-80.4900,1.0,22.31,2 
ENP,ioos.station.NOAA.NDBC:DKKF1:1,2017-02-04T06:00:00Z,25.1800,-80.4900,1.0,22.2,11111222 
ENP,ioos.station.NOAA.NDBC:DKKF1:1,2017-02-04T07:00:00Z,25.1800,-80.4900,1.0,22.1,11111222 
ENP,ioos.station.NOAA.NDBC:DKKF1:1,2017-02-04T08:00:00Z,25.1800,-80.4900,1.0,22.0,11111222 
ENP,ioos.station.NOAA.NDBC:DKKF1:1,2017-02-04T09:00:00Z,25.1800,-80.4900,1.0,22.0,2 
ENP,ioos.station.NOAA.NDBC:DKKF1:1,2017-02-04T10:00:00Z,25.1800,-80.4900,1.0,22.0,11111222 
ENP,ioos.station.NOAA.NDBC:DKKF1:1,2017-02-04T11:00:00Z,25.1800,-80.4900,1.0,21.92,2 
ENP,ioos.station.NOAA.NDBC:DKKF1:1,2017-02-04T12:00:00Z,25.1800,-80.4900,1.0,21.84,2 
ENP,ioos.station.NOAA.NDBC:DKKF1:1,2017-02-04T13:00:00Z,25.1800,-80.4900,1.0,21.74,2 
ENP,ioos.station.NOAA.NDBC:DKKF1:1,2017-02-04T14:00:00Z,25.1800,-80.4900,1.0,21.74,2 
ENP,ioos.station.NOAA.NDBC:DKKF1:1,2017-02-04T15:00:00Z,25.1800,-80.4900,1.0,21.89,2 
ENP,ioos.station.NOAA.NDBC:DKKF1:1,2017-02-04T16:00:00Z,25.1800,-80.4900,1.0,22.02,2 
ENP,ioos.station.NOAA.NDBC:DKKF1:1,2017-02-04T17:00:00Z,25.1800,-80.4900,1.0,22.21,2 
ENP,ioos.station.NOAA.NDBC:DKKF1:1,2017-02-04T18:00:00Z,25.1800,-80.4900,1.0,22.4,2 
ENP,ioos.station.NOAA.NDBC:DKKF1:1,2017-02-04T19:00:00Z,25.1800,-80.4900,1.0,22.75,2 
ENP,ioos.station.NOAA.NDBC:DKKF1:1,2017-02-04T20:00:00Z,25.1800,-80.4900,1.0,22.96,2 
ENP,ioos.station.NOAA.NDBC:DKKF1:1,2017-02-04T21:00:00Z,25.1800,-80.4900,1.0,23.2,11111222 
ENP,ioos.station.NOAA.NDBC:DKKF1:1,2017-02-04T22:00:00Z,25.1800,-80.4900,1.0,23.3,11111222 
ENP,ioos.station.NOAA.NDBC:DKKF1:1,2017-02-04T23:00:00Z,25.1800,-80.4900,1.0,23.3,11111222 
ENP,ioos.station.NOAA.NDBC:DKKF1:1,2017-02-05T00:00:00Z,25.1800,-80.4900,1.0,23.27,2 
ENP,ioos.station.NOAA.NDBC:DKKF1:1,2017-02-05T01:00:00Z,25.1800,-80.4900,1.0,23.2,2 
ENP,ioos.station.NOAA.NDBC:DKKF1:1,2017-02-05T02:00:00Z,25.1800,-80.4900,1.0,23.1,2 
ENP,ioos.station.NOAA.NDBC:DKKF1:1,2017-02-05T03:00:00Z,25.1800,-80.4900,1.0,23.0,11111222 
ENP,ioos.station.NOAA.NDBC:DKKF1:1,2017-02-05T04:00:00Z,25.1800,-80.4900,1.0,22.9,11111222 
ENP,ioos.station.NOAA.NDBC:DKKF1:1,2017-02-05T05:00:00Z,25.1800,-80.4900,1.0,22.8,11111222 
ENP,ioos.station.NOAA.NDBC:DKKF1:1,2017-02-05T06:00:00Z,25.1800,-80.4900,1.0,22.69,2 
ENP,ioos.station.NOAA.NDBC:DKKF1:1,2017-02-05T07:00:00Z,25.1800,-80.4900,1.0,22.6,11111222 
ENP,ioos.station.NOAA.NDBC:DKKF1:1,2017-02-05T08:00:00Z,25.1800,-80.4900,1.0,22.5,11111222 
ENP,ioos.station.NOAA.NDBC:DKKF1:1,2017-02-05T09:00:00Z,25.1800,-80.4900,1.0,22.5,11111222 
ENP,ioos.station.NOAA.NDBC:DKKF1:1,2017-02-05T10:00:00Z,25.1800,-80.4900,1.0,22.4,11111222 
ENP,ioos.station.NOAA.NDBC:DKKF1:1,2017-02-05T11:00:00Z,25.1800,-80.4900,1.0,22.35,2 
ENP,ioos.station.NOAA.NDBC:DKKF1:1,2017-02-05T12:00:00Z,25.1800,-80.4900,1.0,22.3,11111222 
ENP,ioos.station.NOAA.NDBC:DKKF1:1,2017-02-05T13:00:00Z,25.1800,-80.4900,1.0,22.3,11111222 
ENP,ioos.station.NOAA.NDBC:DKKF1:1,2017-02-05T14:00:00Z,25.1800,-80.4900,1.0,22.4,11111222 
ENP,ioos.station.NOAA.NDBC:DKKF1:1,2017-02-05T15:00:00Z,25.1800,-80.4900,1.0,22.6,11111222 
ENP,ioos.station.NOAA.NDBC:DKKF1:1,2017-02-05T16:00:00Z,25.1800,-80.4900,1.0,22.95,2 
ENP,ioos.station.NOAA.NDBC:DKKF1:1,2017-02-05T17:00:00Z,25.1800,-80.4900,1.0,23.04,2 
ENP,ioos.station.NOAA.NDBC:DKKF1:1,2017-02-05T18:00:00Z,25.1800,-80.4900,1.0,23.18,2 
ENP,ioos.station.NOAA.NDBC:DKKF1:1,2017-02-05T19:00:00Z,25.1800,-80.4900,1.0,23.43,2 
ENP,ioos.station.NOAA.NDBC:DKKF1:1,2017-02-05T20:00:00Z,25.1800,-80.4900,1.0,23.69,2 
ENP,ioos.station.NOAA.NDBC:DKKF1:1,2017-02-05T21:00:00Z,25.1800,-80.4900,1.0,23.9,11111222 
ENP,ioos.station.NOAA.NDBC:DKKF1:1,2017-02-05T22:00:00Z,25.1800,-80.4900,1.0,24.1,11111222 
ENP,ioos.station.NOAA.NDBC:DKKF1:1,2017-02-05T23:00:00Z,25.1800,-80.4900,1.0,24.1,11111222 
ENP,ioos.station.NOAA.NDBC:DKKF1:1,2017-02-06T00:00:00Z,25.1800,-80.4900,1.0,24.0,11111222 
ENP,ioos.station.NOAA.NDBC:DKKF1:1,2017-02-06T01:00:00Z,25.1800,-80.4900,1.0,23.9,11111222 
ENP,ioos.station.NOAA.NDBC:DKKF1:1,2017-02-06T02:00:00Z,25.1800,-80.4900,1.0,23.8,11111222 
ENP,ioos.station.NOAA.NDBC:DKKF1:1,2017-02-06T03:00:00Z,25.1800,-80.4900,1.0,23.81,2 
ENP,ioos.station.NOAA.NDBC:DKKF1:1,2017-02-06T04:00:00Z,25.1800,-80.4900,1.0,23.62,2 
ENP,ioos.station.NOAA.NDBC:DKKF1:1,2017-02-06T05:00:00Z,25.1800,-80.4900,1.0,23.5,11111222 
ENP,ioos.station.NOAA.NDBC:DKKF1:1,2017-02-06T06:00:00Z,25.1800,-80.4900,1.0,23.58,2 
ENP,ioos.station.NOAA.NDBC:DKKF1:1,2017-02-06T07:00:00Z,25.1800,-80.4900,1.0,23.49,2 
ENP,ioos.station.NOAA.NDBC:DKKF1:1,2017-02-06T08:00:00Z,25.1800,-80.4900,1.0,23.38,2 
ENP,ioos.station.NOAA.NDBC:DKKF1:1,2017-02-06T09:00:00Z,25.1800,-80.4900,1.0,23.26,2 
ENP,ioos.station.NOAA.NDBC:DKKF1:1,2017-02-06T10:00:00Z,25.1800,-80.4900,1.0,23.15,2 
ENP,ioos.station.NOAA.NDBC:DKKF1:1,2017-02-06T11:00:00Z,25.1800,-80.4900,1.0,23.0,11111222 
ENP,ioos.station.NOAA.NDBC:DKKF1:1,2017-02-06T12:00:00Z,25.1800,-80.4900,1.0,22.9,11111222 
ENP,ioos.station.NOAA.NDBC:DKKF1:1,2017-02-06T13:00:00Z,25.1800,-80.4900,1.0,22.79,2 
ENP,ioos.station.NOAA.NDBC:DKKF1:1,2017-02-06T14:00:00Z,25.1800,-80.4900,1.0,22.8,11111222 
ENP,ioos.station.NOAA.NDBC:DKKF1:1,2017-02-06T15:00:00Z,25.1800,-80.4900,1.0,22.9,11111222 
ENP,ioos.station.NOAA.NDBC:DKKF1:1,2017-02-06T16:00:00Z,25.1800,-80.4900,1.0,23.1,11111222 
ENP,ioos.station.NOAA.NDBC:DKKF1:1,2017-02-06T17:00:00Z,25.1800,-80.4900,1.0,23.3,11111222 
ENP,ioos.station.NOAA.NDBC:DKKF1:1,2017-02-06T18:00:00Z,25.1800,-80.4900,1.0,23.7,11111222 
ENP,ioos.station.NOAA.NDBC:DKKF1:1,2017-02-06T19:00:00Z,25.1800,-80.4900,1.0,24.0,11111222 
ENP,ioos.station.NOAA.NDBC:DKKF1:1,2017-02-06T20:00:00Z,25.1800,-80.4900,1.0,24.2,11111222 
ENP,ioos.station.NOAA.NDBC:DKKF1:1,2017-02-06T21:00:00Z,25.1800,-80.4900,1.0,24.4,11111222 
ENP,ioos.station.NOAA.NDBC:DKKF1:1,2017-02-06T22:00:00Z,25.1800,-80.4900,1.0,24.4,11111222 
ENP,ioos.station.NOAA.NDBC:DKKF1:1,2017-02-06T23:00:00Z,25.1800,-80.4900,1.0,24.3,11111222 
ENP,ioos.station.NOAA.NDBC:DKKF1:1,2017-02-07T00:00:00Z,25.1800,-80.4900,1.0,24.1,11111222 
ENP,ioos.station.NOAA.NDBC:DKKF1:1,2017-02-07T01:00:00Z,25.1800,-80.4900,1.0,24.1,11111222 
ENP,ioos.station.NOAA.NDBC:DKKF1:1,2017-02-07T03:00:00Z,25.1800,-80.4900,1.0,23.8,11111222 
ENP,ioos.station.NOAA.NDBC:DKKF1:1,2017-02-07T04:00:00Z,25.1800,-80.4900,1.0,23.8,11111222 
ENP,ioos.station.NOAA.NDBC:DKKF1:1,2017-02-07T05:00:00Z,25.1800,-80.4900,1.0,23.7,11111222 
ENP,ioos.station.NOAA.NDBC:DKKF1:1,2017-02-07T06:00:00Z,25.1800,-80.4900,1.0,23.61,2 
ENP,ioos.station.NOAA.NDBC:DKKF1:1,2017-02-07T07:00:00Z,25.1800,-80.4900,1.0,23.5,11111222 
ENP,ioos.station.NOAA.NDBC:DKKF1:1,2017-02-07T08:00:00Z,25.1800,-80.4900,1.0,23.4,11111222 
ENP,ioos.station.NOAA.NDBC:DKKF1:1,2017-02-07T09:00:00Z,25.1800,-80.4900,1.0,23.3,11111222 
ENP,ioos.station.NOAA.NDBC:DKKF1:1,2017-02-07T10:00:00Z,25.1800,-80.4900,1.0,23.24,2 
ENP,ioos.station.NOAA.NDBC:DKKF1:1,2017-02-07T11:00:00Z,25.1800,-80.4900,1.0,23.2,11111222 
ENP,ioos.station.NOAA.NDBC:DKKF1:1,2017-02-07T12:00:00Z,25.1800,-80.4900,1.0,23.0,11111222 
ENP,ioos.station.NOAA.NDBC:DKKF1:1,2017-02-07T13:00:00Z,25.1800,-80.4900,1.0,23.0,11111222 
ENP,ioos.station.NOAA.NDBC:DKKF1:1,2017-02-07T14:00:00Z,25.1800,-80.4900,1.0,23.0,11111222 
ENP,ioos.station.NOAA.NDBC:DKKF1:1,2017-02-07T15:00:00Z,25.1800,-80.4900,1.0,23.1,11111222 
ENP,ioos.station.NOAA.NDBC:DKKF1:1,2017-02-07T16:00:00Z,25.1800,-80.4900,1.0,23.2,11111222 
ENP,ioos.station.NOAA.NDBC:DKKF1:1,2017-02-07T17:00:00Z,25.1800,-80.4900,1.0,23.4,2 
ENP,ioos.station.NOAA.NDBC:DKKF1:1,2017-02-07T18:00:00Z,25.1800,-80.4900,1.0,23.7,11111222 
ENP,ioos.station.NOAA.NDBC:DKKF1:1,2017-02-07T19:00:00Z,25.1800,-80.4900,1.0,23.88,2 
ENP,ioos.station.NOAA.NDBC:DKKF1:1,2017-02-07T20:00:00Z,25.1800,-80.4900,1.0,24.2,11111222 
ENP,ioos.station.NOAA.NDBC:DKKF1:1,2017-02-07T21:00:00Z,25.1800,-80.4900,1.0,24.36,2 
ENP,ioos.station.NOAA.NDBC:DKKF1:1,2017-02-07T22:00:00Z,25.1800,-80.4900,1.0,24.5,11111222 
ENP,ioos.station.NOAA.NDBC:DKKF1:1,2017-02-07T23:00:00Z,25.1800,-80.4900,1.0,24.52,2 
ENP,ioos.station.NOAA.NDBC:DKKF1:1,2017-02-08T00:00:00Z,25.1800,-80.4900,1.0,24.5,11111222 
ENP,ioos.station.NOAA.NDBC:DKKF1:1,2017-02-08T01:00:00Z,25.1800,-80.4900,1.0,24.5,11111222 
ENP,ioos.station.NOAA.NDBC:DKKF1:1,2017-02-08T03:00:00Z,25.1800,-80.4900,1.0,24.3,11111222 
ENP,ioos.station.NOAA.NDBC:DKKF1:1,2017-02-08T04:00:00Z,25.1800,-80.4900,1.0,24.3,2 
ENP,ioos.station.NOAA.NDBC:DKKF1:1,2017-02-08T05:00:00Z,25.1800,-80.4900,1.0,24.3,11111222 
ENP,ioos.station.NOAA.NDBC:DKKF1:1,2017-02-08T06:00:00Z,25.1800,-80.4900,1.0,24.22,2 
ENP,ioos.station.NOAA.NDBC:DKKF1:1,2017-02-08T07:00:00Z,25.1800,-80.4900,1.0,24.0,11111222 
ENP,ioos.station.NOAA.NDBC:DKKF1:1,2017-02-08T08:00:00Z,25.1800,-80.4900,1.0,24.0,11111222 
ENP,ioos.station.NOAA.NDBC:DKKF1:1,2017-02-08T09:00:00Z,25.1800,-80.4900,1.0,23.9,11111222 
ENP,ioos.station.NOAA.NDBC:DKKF1:1,2017-02-08T10:00:00Z,25.1800,-80.4900,1.0,23.96,2 
ENP,ioos.station.NOAA.NDBC:DKKF1:1,2017-02-08T11:00:00Z,25.1800,-80.4900,1.0,23.9,11111222 
ENP,ioos.station.NOAA.NDBC:DKKF1:1,2017-02-08T12:00:00Z,25.1800,-80.4900,1.0,23.9,11111222 
ENP,ioos.station.NOAA.NDBC:DKKF1:1,2017-02-08T13:00:00Z,25.1800,-80.4900,1.0,23.9,11111222 
ENP,ioos.station.NOAA.NDBC:DKKF1:1,2017-02-08T14:00:00Z,25.1800,-80.4900,1.0,23.9,11111222 
ENP,ioos.station.NOAA.NDBC:DKKF1:1,2017-02-08T15:00:00Z,25.1800,-80.4900,1.0,23.9,11111222 
ENP,ioos.station.NOAA.NDBC:DKKF1:1,2017-02-08T16:00:00Z,25.1800,-80.4900,1.0,24.2,11111222 
ENP,ioos.station.NOAA.NDBC:DKKF1:1,2017-02-08T17:00:00Z,25.1800,-80.4900,1.0,24.6,11111222 
ENP,ioos.station.NOAA.NDBC:DKKF1:1,2017-02-08T18:00:00Z,25.1800,-80.4900,1.0,25.0,11111222 
ENP,ioos.station.NOAA.NDBC:DKKF1:1,2017-02-09T08:00:00Z,25.1800,-80.4900,1.0,24.9,11111222 
ENP,ioos.station.NOAA.NDBC:DKKF1:1,2017-02-09T09:00:00Z,25.1800,-80.4900,1.0,24.78,2 
ENP,ioos.station.NOAA.NDBC:DKKF1:1,2017-02-09T10:00:00Z,25.1800,-80.4900,1.0,24.68,2 
ENP,ioos.station.NOAA.NDBC:DKKF1:1,2017-02-09T11:00:00Z,25.1800,-80.4900,1.0,24.6,11111222 
ENP,ioos.station.NOAA.NDBC:DKKF1:1,2017-02-09T12:00:00Z,25.1800,-80.4900,1.0,24.43,2 
ENP,ioos.station.NOAA.NDBC:DKKF1:1,2017-02-09T13:00:00Z,25.1800,-80.4900,1.0,24.4,11111222 
ENP,ioos.station.NOAA.NDBC:DKKF1:1,2017-02-09T14:00:00Z,25.1800,-80.4900,1.0,24.4,11111222 
ENP,ioos.station.NOAA.NDBC:DKKF1:1,2017-02-09T15:00:00Z,25.1800,-80.4900,1.0,24.6,11111222 
ENP,ioos.station.NOAA.NDBC:DKKF1:1,2017-02-09T16:00:00Z,25.1800,-80.4900,1.0,24.8,11111222 
ENP,ioos.station.NOAA.NDBC:DKKF1:1,2017-02-09T17:00:00Z,25.1800,-80.4900,1.0,25.19,2 
ENP,ioos.station.NOAA.NDBC:DKKF1:1,2017-02-09T18:00:00Z,25.1800,-80.4900,1.0,25.4,11111222 
ENP,ioos.station.NOAA.NDBC:DKKF1:1,2017-02-09T19:00:00Z,25.1800,-80.4900,1.0,25.6,11111222 
ENP,ioos.station.NOAA.NDBC:DKKF1:1,2017-02-09T20:00:00Z,25.1800,-80.4900,1.0,25.7,11111222 
ENP,ioos.station.NOAA.NDBC:DKKF1:1,2017-02-09T21:00:00Z,25.1800,-80.4900,1.0,25.85,2 
ENP,ioos.station.NOAA.NDBC:DKKF1:1,2017-02-09T22:00:00Z,25.1800,-80.4900,1.0,25.9,11111222 
ENP,ioos.station.NOAA.NDBC:DKKF1:1,2017-02-09T23:00:00Z,25.1800,-80.4900,1.0,25.7,11111222 
ENP,ioos.station.NOAA.NDBC:DKKF1:1,2017-02-10T00:00:00Z,25.1800,-80.4900,1.0,25.6,2 
ENP,ioos.station.NOAA.NDBC:DKKF1:1,2017-02-10T01:00:00Z,25.1800,-80.4900,1.0,25.5,2 
ENP,ioos.station.NOAA.NDBC:DKKF1:1,2017-02-10T03:00:00Z,25.1800,-80.4900,1.0,25.3,11111222 
ENP,ioos.station.NOAA.NDBC:DKKF1:1,2017-02-10T04:00:00Z,25.1800,-80.4900,1.0,25.13,2 
ENP,ioos.station.NOAA.NDBC:DKKF1:1,2017-02-10T05:00:00Z,25.1800,-80.4900,1.0,25.0,11111222 
ENP,ioos.station.NOAA.NDBC:DKKF1:1,2017-02-10T06:00:00Z,25.1800,-80.4900,1.0,24.77,2 
ENP,ioos.station.NOAA.NDBC:DKKF1:1,2017-02-10T07:00:00Z,25.1800,-80.4900,1.0,24.78,2 
ENP,ioos.station.NOAA.NDBC:DKKF1:1,2017-02-10T08:00:00Z,25.1800,-80.4900,1.0,24.65,2 
ENP,ioos.station.NOAA.NDBC:DKKF1:1,2017-02-10T09:00:00Z,25.1800,-80.4900,1.0,24.21,2 
ENP,ioos.station.NOAA.NDBC:DKKF1:1,2017-02-10T10:00:00Z,25.1800,-80.4900,1.0,24.3,11111222 
ENP,ioos.station.NOAA.NDBC:DKKF1:1,2017-02-10T11:00:00Z,25.1800,-80.4900,1.0,24.1,2 
ENP,ioos.station.NOAA.NDBC:DKKF1:1,2017-02-10T12:00:00Z,25.1800,-80.4900,1.0,23.89,2 
ENP,ioos.station.NOAA.NDBC:DKKF1:1,2017-02-10T13:00:00Z,25.1800,-80.4900,1.0,23.64,2 
ENP,ioos.station.NOAA.NDBC:DKKF1:1,2017-02-10T14:00:00Z,25.1800,-80.4900,1.0,23.57,2 
ENP,ioos.station.NOAA.NDBC:DKKF1:1,2017-02-10T15:00:00Z,25.1800,-80.4900,1.0,23.55,2 
ENP,ioos.station.NOAA.NDBC:DKKF1:1,2017-02-10T16:00:00Z,25.1800,-80.4900,1.0,23.73,2 
ENP,ioos.station.NOAA.NDBC:DKKF1:1,2017-02-10T17:00:00Z,25.1800,-80.4900,1.0,23.9,2 
ENP,ioos.station.NOAA.NDBC:DKKF1:1,2017-02-10T18:00:00Z,25.1800,-80.4900,1.0,24.02,2 
ENP,ioos.station.NOAA.NDBC:DKKF1:1,2017-02-10T19:00:00Z,25.1800,-80.4900,1.0,24.19,2 
ENP,ioos.station.NOAA.NDBC:DKKF1:1,2017-02-10T20:00:00Z,25.1800,-80.4900,1.0,24.33,2 
ENP,ioos.station.NOAA.NDBC:DKKF1:1,2017-02-10T21:00:00Z,25.1800,-80.4900,1.0,24.4,11111222 
ENP,ioos.station.NOAA.NDBC:DKKF1:1,2017-02-10T22:00:00Z,25.1800,-80.4900,1.0,24.3,11111222 
ENP,ioos.station.NOAA.NDBC:DKKF1:1,2017-02-10T23:00:00Z,25.1800,-80.4900,1.0,24.1,11111222 
ENP,ioos.station.NOAA.NDBC:DKKF1:1,2017-02-11T00:00:00Z,25.1800,-80.4900,1.0,23.95,2 
ENP,ioos.station.NOAA.NDBC:DKKF1:1,2017-02-11T01:00:00Z,25.1800,-80.4900,1.0,23.75,2 
ENP,ioos.station.NOAA.NDBC:DKKF1:1,2017-02-11T02:00:00Z,25.1800,-80.4900,1.0,23.6,11111222 
ENP,ioos.station.NOAA.NDBC:DKKF1:1,2017-02-11T03:00:00Z,25.1800,-80.4900,1.0,23.36,2 
ENP,ioos.station.NOAA.NDBC:DKKF1:1,2017-02-11T04:00:00Z,25.1800,-80.4900,1.0,23.22,2 
ENP,ioos.station.NOAA.NDBC:DKKF1:1,2017-02-11T05:00:00Z,25.1800,-80.4900,1.0,23.07,2 
ENP,ioos.station.NOAA.NDBC:DKKF1:1,2017-02-11T06:00:00Z,25.1800,-80.4900,1.0,22.9,11111222 
ENP,ioos.station.NOAA.NDBC:DKKF1:1,2017-02-11T07:00:00Z,25.1800,-80.4900,1.0,22.79,2 
ENP,ioos.station.NOAA.NDBC:DKKF1:1,2017-02-11T08:00:00Z,25.1800,-80.4900,1.0,22.61,2 
ENP,ioos.station.NOAA.NDBC:DKKF1:1,2017-02-11T09:00:00Z,25.1800,-80.4900,1.0,22.52,2 
ENP,ioos.station.NOAA.NDBC:DKKF1:1,2017-02-11T10:00:00Z,25.1800,-80.4900,1.0,22.38,2 
ENP,ioos.station.NOAA.NDBC:DKKF1:1,2017-02-11T11:00:00Z,25.1800,-80.4900,1.0,22.3,11111222 
ENP,ioos.station.NOAA.NDBC:DKKF1:1,2017-02-11T12:00:00Z,25.1800,-80.4900,1.0,22.1,11111222 
ENP,ioos.station.NOAA.NDBC:DKKF1:1,2017-02-11T13:00:00Z,25.1800,-80.4900,1.0,22.03,2 
ENP,ioos.station.NOAA.NDBC:DKKF1:1,2017-02-11T14:00:00Z,25.1800,-80.4900,1.0,22.01,2 
ENP,ioos.station.NOAA.NDBC:DKKF1:1,2017-02-11T15:00:00Z,25.1800,-80.4900,1.0,22.09,2 
ENP,ioos.station.NOAA.NDBC:DKKF1:1,2017-02-11T16:00:00Z,25.1800,-80.4900,1.0,22.28,2 
ENP,ioos.station.NOAA.NDBC:DKKF1:1,2017-02-11T17:00:00Z,25.1800,-80.4900,1.0,22.54,2 
ENP,ioos.station.NOAA.NDBC:DKKF1:1,2017-02-11T18:00:00Z,25.1800,-80.4900,1.0,22.82,2 
ENP,ioos.station.NOAA.NDBC:DKKF1:1,2017-02-11T19:00:00Z,25.1800,-80.4900,1.0,23.11,2 
ENP,ioos.station.NOAA.NDBC:DKKF1:1,2017-02-11T20:00:00Z,25.1800,-80.4900,1.0,23.42,2 
ENP,ioos.station.NOAA.NDBC:DKKF1:1,2017-02-11T21:00:00Z,25.1800,-80.4900,1.0,23.66,2 
ENP,ioos.station.NOAA.NDBC:DKKF1:1,2017-02-11T22:00:00Z,25.1800,-80.4900,1.0,23.8,11111222 
ENP,ioos.station.NOAA.NDBC:DKKF1:1,2017-02-11T23:00:00Z,25.1800,-80.4900,1.0,23.78,2 
ENP,ioos.station.NOAA.NDBC:DKKF1:1,2017-02-12T00:00:00Z,25.1800,-80.4900,1.0,23.61,2 
ENP,ioos.station.NOAA.NDBC:DKKF1:1,2017-02-12T01:00:00Z,25.1800,-80.4900,1.0,23.46,2 
ENP,ioos.station.NOAA.NDBC:DKKF1:1,2017-02-12T02:00:00Z,25.1800,-80.4900,1.0,23.35,2 
ENP,ioos.station.NOAA.NDBC:DKKF1:1,2017-02-12T03:00:00Z,25.1800,-80.4900,1.0,23.3,11111222 
ENP,ioos.station.NOAA.NDBC:DKKF1:1,2017-02-12T04:00:00Z,25.1800,-80.4900,1.0,23.2,11111222 
ENP,ioos.station.NOAA.NDBC:DKKF1:1,2017-02-12T05:00:00Z,25.1800,-80.4900,1.0,23.1,11111222 
ENP,ioos.station.NOAA.NDBC:DKKF1:1,2017-02-12T06:00:00Z,25.1800,-80.4900,1.0,22.98,2 
ENP,ioos.station.NOAA.NDBC:DKKF1:1,2017-02-12T07:00:00Z,25.1800,-80.4900,1.0,22.9,11111222 
ENP,ioos.station.NOAA.NDBC:DKKF1:1,2017-02-12T08:00:00Z,25.1800,-80.4900,1.0,22.87,2 
ENP,ioos.station.NOAA.NDBC:DKKF1:1,2017-02-12T09:00:00Z,25.1800,-80.4900,1.0,22.7,11111222 
ENP,ioos.station.NOAA.NDBC:DKKF1:1,2017-02-12T10:00:00Z,25.1800,-80.4900,1.0,22.7,11111222 
ENP,ioos.station.NOAA.NDBC:DKKF1:1,2017-02-12T11:00:00Z,25.1800,-80.4900,1.0,22.6,2 
ENP,ioos.station.NOAA.NDBC:DKKF1:1,2017-02-12T12:00:00Z,25.1800,-80.4900,1.0,22.5,11111222 
ENP,ioos.station.NOAA.NDBC:DKKF1:1,2017-02-12T13:00:00Z,25.1800,-80.4900,1.0,22.44,2 
ENP,ioos.station.NOAA.NDBC:DKKF1:1,2017-02-12T14:00:00Z,25.1800,-80.4900,1.0,22.4,11111222 
ENP,ioos.station.NOAA.NDBC:DKKF1:1,2017-02-12T15:00:00Z,25.1800,-80.4900,1.0,22.5,11111222 
ENP,ioos.station.NOAA.NDBC:DKKF1:1,2017-02-12T16:00:00Z,25.1800,-80.4900,1.0,22.62,2 
ENP,ioos.station.NOAA.NDBC:DKKF1:1,2017-02-12T17:00:00Z,25.1800,-80.4900,1.0,22.83,2 
ENP,ioos.station.NOAA.NDBC:DKKF1:1,2017-02-12T18:00:00Z,25.1800,-80.4900,1.0,23.2,11111222 
ENP,ioos.station.NOAA.NDBC:DKKF1:1,2017-02-12T19:00:00Z,25.1800,-80.4900,1.0,23.65,2 
ENP,ioos.station.NOAA.NDBC:DKKF1:1,2017-02-12T20:00:00Z,25.1800,-80.4900,1.0,23.9,11111222 
ENP,ioos.station.NOAA.NDBC:DKKF1:1,2017-02-12T21:00:00Z,25.1800,-80.4900,1.0,24.1,11111222 
ENP,ioos.station.NOAA.NDBC:DKKF1:1,2017-02-12T22:00:00Z,25.1800,-80.4900,1.0,24.22,2 